Flight Track Log - Related Links

Times and Time Zones

All times are in EDT time to prevent confusion due to time zone crossing. See the SWA946 flight status page for this flight to view local times or setup timezone preferences in your user account.

Time Position Orientation Groundspeed Altitude Reporting Facility
EDT Latitude Longitude Course Direction KTS MPH feet Rate Location/Type
Sat 08:56:07 PM 40.7492 -112.0383 235° Southwest 213 245 6,000  Level Salt Lake Center
Sat 08:57:08 PM 40.7786 -112.1106 298° West 244 281 8,600 2,087 Climbing Salt Lake Center
Sat 08:58:02 PM 40.8292 -112.1614 323° Northwest 276 318 10,000 2,362 Climbing Salt Lake Center
Sat 08:59:15 PM 40.8939 -112.2261 323° Northwest 271 312 13,600 1,925 Climbing Salt Lake Center
Sat 09:00:16 PM 40.9756 -112.3086 323° Northwest 324 373 14,300 1,475 Climbing Salt Lake Center
Sat 09:01:17 PM 41.0567 -112.3919 322° Northwest 365 420 16,600 2,311 Climbing Salt Lake Center
Sat 09:02:18 PM 41.1383 -112.4767 322° Northwest 370 426 19,000 2,016 Climbing Salt Lake Center
Sat 09:03:19 PM 41.2200 -112.5608 322° Northwest 373 429 20,700 1,623 Climbing Salt Lake Center
Sat 09:04:20 PM 41.3019 -112.6522 320° Northwest 383 441 22,300 1,623 Climbing Salt Lake Center
Sat 09:05:21 PM 41.3753 -112.7611 312° West 391 450 24,000 1,785 Climbing Salt Lake Center
Sat 09:06:21 PM 41.4478 -112.8686 312° West 389 448 25,900 2,083 Climbing Salt Lake Center
Sat 09:07:22 PM 41.5169 -112.9756 311° West 381 438 28,200 2,016 Climbing Salt Lake Center
Sat 09:08:23 PM 41.5817 -113.0781 310° West 367 422 30,000 1,574 Climbing Salt Lake Center
Sat 09:09:24 PM 41.6494 -113.1778 312° West 364 419 31,400 1,574 Climbing Salt Lake Center
Sat 09:10:25 PM 41.7131 -113.2772 311° West 356 410 33,200 1,574 Climbing Salt Lake Center
Sat 09:11:26 PM 41.7744 -113.3711 311° West 342 394 34,600 893 Climbing Salt Lake Center
Sat 09:12:26 PM 41.8378 -113.4611 313° West 333 383 35,000 397 Climbing Salt Lake Center
Sat 09:13:27 PM 41.9067 -113.5508 316° Northwest 343 395 35,400 492 Climbing Salt Lake Center
Sat 09:14:28 PM 41.9772 -113.6439 316° Northwest 352 405 36,000 295 Climbing Salt Lake Center
Sat 09:15:29 PM 42.0606 -113.7517 316° Northwest 348 400 36,000  Level Salt Lake Center
Sat 09:16:30 PM 42.1294 -113.8433 315° West 348 400 36,000  Level Salt Lake Center
Sat 09:17:31 PM 42.1986 -113.9322 316° Northwest 345 397 36,000  Level Salt Lake Center
Sat 09:18:32 PM 42.2656 -114.0222 315° West 340 391 36,000  Level Salt Lake Center
Sat 09:19:33 PM 42.3317 -114.1111 315° West 336 387 36,000  Level Salt Lake Center
Sat 09:20:34 PM 42.3992 -114.2081 313° West 361 415 36,000  Level Salt Lake Center
Sat 09:21:35 PM 42.4678 -114.2967 316° Northwest 342 394 36,000  Level Salt Lake Center
Sat 09:22:35 PM 42.5353 -114.3881 315° West 343 395 36,000  Level Salt Lake Center
Sat 09:23:36 PM 42.6022 -114.4797 315° West 342 394 36,000  Level Salt Lake Center
Sat 09:24:37 PM 42.6744 -114.5789 315° West 340 391 36,000  Level Salt Lake Center
Sat 09:25:38 PM 42.7394 -114.6656 316° Northwest 341 392 36,000  Level Salt Lake Center
Sat 09:26:39 PM 42.8144 -114.7683 315° West 341 392 36,000  Level Salt Lake Center
Sat 09:27:40 PM 42.8775 -114.8539 315° West 335 386 36,000  Level Salt Lake Center
Sat 09:28:41 PM 42.9408 -114.9392 315° West 335 386 36,000  Level Salt Lake Center
Sat 09:29:42 PM 43.0150 -115.0414 315° West 338 389 36,000  Level Salt Lake Center
Sat 09:30:43 PM 43.0781 -115.1289 315° West 337 388 36,000  Level Salt Lake Center
Sat 09:31:44 PM 43.1414 -115.2161 315° West 337 388 36,000  Level Salt Lake Center
Sat 09:32:45 PM 43.2153 -115.3197 314° West 339 390 36,000  Level Salt Lake Center
Sat 09:33:46 PM 43.2781 -115.4089 314° West 339 390 36,000  Level Salt Lake Center
Sat 09:34:47 PM 43.3417 -115.4989 314° West 341 392 36,000  Level Salt Lake Center
Sat 09:35:48 PM 43.4167 -115.6022 315° West 342 394 36,000  Level Salt Lake Center
Sat 09:36:49 PM 43.4803 -115.6922 314° West 343 395 36,000  Level Salt Lake Center
Sat 09:37:50 PM 43.5444 -115.7844 314° West 348 400 36,000  Level Salt Lake Center
Sat 09:38:51 PM 43.6186 -115.8900 314° West 345 397 36,000  Level Salt Lake Center
Sat 09:39:52 PM 43.6822 -115.9808 314° West 343 395 36,000  Level Salt Lake Center
Sat 09:40:53 PM 43.7469 -116.0728 314° West 347 399 36,000  Level Salt Lake Center
Sat 09:41:54 PM 43.8208 -116.1781 314° West 341 392 36,000  Level Salt Lake Center
Sat 09:42:55 PM 43.8833 -116.2697 313° West 341 392 36,000  Level Salt Lake Center
Sat 09:43:56 PM 43.9467 -116.3608 314° West 341 392 36,000  Level Salt Lake Center
Sat 09:44:57 PM 44.0203 -116.4664 314° West 339 390 36,000  Level Salt Lake Center
Sat 09:45:58 PM 44.0828 -116.5592 313° West 342 394 36,000  Level Salt Lake Center
Sat 09:47:00 PM 44.1461 -116.6508 314° West 340 391 36,000  Level Salt Lake Center
Sat 09:48:01 PM 44.2194 -116.7583 314° West 340 391 36,000  Level Salt Lake Center
Sat 09:49:02 PM 44.2825 -116.8503 314° West 342 394 36,000  Level Salt Lake Center
Sat 09:50:03 PM 44.3456 -116.9433 313° West 343 395 36,000  Level Salt Lake Center
Sat 09:51:04 PM 44.4178 -117.0503 313° West 339 390 36,000  Level Salt Lake Center
Sat 09:52:05 PM 44.4794 -117.1419 313° West 337 388 36,000  Level Salt Lake Center
Sat 09:53:06 PM 44.5511 -117.2486 313° West 335 386 36,000  Level Salt Lake Center
Sat 09:54:07 PM 44.6111 -117.3381 313° West 329 379 36,000  Level Salt Lake Center
Sat 09:55:08 PM 44.6719 -117.4297 313° West 333 383 36,000  Level Salt Lake Center
Sat 09:56:09 PM 44.7425 -117.5361 313° West 333 383 36,000  Level Salt Lake Center
Sat 09:57:10 PM 44.8033 -117.6278 313° West 334 384 36,000  Level Salt Lake Center
Sat 09:58:11 PM 44.8631 -117.7203 312° West 333 383 36,000  Level Salt Lake Center
Sat 09:59:12 PM 44.9356 -117.8278 314° West 337 388 36,000  Level Salt Lake Center
Sat 09:59:55 PM 44.9758 -117.8908 312° West 336 387 36,000  Level Seattle Center
Sat 10:00:56 PM 45.0358 -117.9833 313° West 335 386 36,000  Level Seattle Center
Sat 10:01:56 PM 45.1058 -118.0925 312° West 334 384 36,000  Level Seattle Center
Sat 10:02:57 PM 45.1589 -118.1742 313° West 332 382 36,000  Level Seattle Center
Sat 10:03:57 PM 45.2225 -118.2714 313° West 336 387 36,000  Level Seattle Center
Sat 10:04:58 PM 45.2983 -118.3889 313° West 336 387 36,000  Level Seattle Center
Sat 10:05:58 PM 45.3597 -118.4864 312° West 335 386 36,000  Level Seattle Center
Sat 10:06:59 PM 45.4225 -118.5828 313° West 332 382 36,000  Level Seattle Center
Sat 10:08:00 PM 45.4842 -118.6811 312° West 333 383 36,000  Level Seattle Center
Sat 10:09:00 PM 45.5469 -118.7797 312° West 337 388 36,000  Level Seattle Center
Sat 10:10:01 PM 45.6086 -118.8778 312° West 335 386 36,000  Level Seattle Center
Sat 10:11:01 PM 45.6711 -118.9769 312° West 337 388 36,000  Level Seattle Center
Sat 10:12:02 PM 45.7328 -119.0739 312° West 333 383 36,000  Level Seattle Center
Sat 10:13:03 PM 45.7936 -119.1728 311° West 333 383 36,000  Level Seattle Center
Sat 10:14:03 PM 45.8544 -119.2717 311° West 333 383 36,000  Level Seattle Center
Sat 10:15:04 PM 45.9161 -119.3703 312° West 334 384 36,000  Level Seattle Center
Sat 10:16:04 PM 45.9783 -119.4694 312° West 336 387 36,000  Level Seattle Center
Sat 10:17:05 PM 46.0406 -119.5714 311° West 339 390 36,000  Level Seattle Center
Sat 10:18:05 PM 46.1022 -119.6717 312° West 336 387 36,000  Level Seattle Center
Sat 10:19:06 PM 46.1619 -119.7717 311° West 331 381 36,000  Level Seattle Center
Sat 10:20:07 PM 46.2231 -119.8717 311° West 331 381 36,000  Level Seattle Center
Sat 10:21:07 PM 46.2950 -119.9906 311° West 330 380 36,000  Level Seattle Center
Sat 10:22:08 PM 46.3528 -120.0883 311° West 327 376 36,000  Level Seattle Center
Sat 10:23:08 PM 46.4128 -120.1883 311° West 328 377 36,000  Level Seattle Center
Sat 10:24:09 PM 46.4739 -120.2897 311° West 332 382 36,000  Level Seattle Center
Sat 10:25:10 PM 46.5344 -120.3942 310° West 337 388 36,000  Level Seattle Center
Sat 10:26:10 PM 46.5958 -120.4986 311° West 341 392 36,000  Level Seattle Center
Sat 10:27:11 PM 46.6483 -120.6150 303° West 345 397 36,000  Level Seattle Center
Sat 10:28:11 PM 46.7036 -120.7278 306° West 346 398 36,000 -694 Level Seattle Center
Sat 10:29:12 PM 46.7578 -120.8425 305° West 345 397 34,600 -2,164 Descending Seattle Center
Sat 10:30:13 PM 46.8131 -120.9600 305° West 351 404 31,600 -2,876 Descending Seattle Center
Sat 10:31:13 PM 46.8689 -121.0783 305° West 357 411 28,800 -2,529 Descending Seattle Center
Sat 10:32:14 PM 46.9217 -121.1942 304° West 346 398 26,500 -2,231 Descending Seattle Center
Sat 10:33:14 PM 46.9722 -121.3011 305° West 326 375 24,300 -2,422 Descending Seattle Center
Sat 10:34:03 PM 47.0233 -121.4089 305° West 328 377 22,100 -2,432 Descending Seattle Center
Sat 10:34:28 PM 47.0439 -121.4528 305° West 335 386 21,300 -1,726 Descending Seattle Center
Sat 10:35:16 PM 47.0814 -121.5333 304° West 327 376 20,000 -1,667 Descending Seattle Center
Sat 10:36:16 PM 47.1261 -121.6342 303° West 302 348 18,300 -1,438 Descending Seattle Center
Sat 10:37:17 PM 47.1731 -121.7353 304° West 305 351 17,100 -1,425 Descending Seattle Center
Sat 10:37:36 PM 47.1936 -121.7769 306° West 301 346 16,400 -2,400 Descending Seattle Center
Sat 10:38:17 PM 47.2197 -121.8356 303° West 301 346 14,700 -2,500 Descending Seattle Center
Sat 10:38:36 PM 47.2400 -121.8786 305° West 303 349 13,900 -1,967 Descending Seattle Center
Sat 10:39:18 PM 47.2661 -121.9369 303° West 300 345 12,700 -2,066 Descending Seattle Center
Sat 10:39:37 PM 47.2864 -121.9803 305° West 298 343 11,800 -2,100 Descending Seattle Center
Sat 10:40:18 PM 47.3108 -122.0344 304° West 291 335 10,600 -1,770 Descending Seattle Center
Sat 10:40:38 PM 47.3311 -122.0764 306° West 285 328 10,000 -590 Descending Seattle Center
Sat 10:41:19 PM 47.3528 -122.1269 302° West 273 314 10,000  Level Seattle Center
Sat 10:41:39 PM 47.3689 -122.1636 303° West 244 281 10,000  Level Seattle Center
Sat 10:42:20 PM 47.4039 -122.1758 347° North 256 295 10,000 -1,307 Level Seattle Center
Sat 10:43:20 PM 47.4750 -122.1714 North 260 299 7,800 -2,083 Descending Seattle Center
Sat 10:44:21 PM 47.5625 -122.1711 360° North 270 311 5,800 -1,377 Descending Seattle Center
Sat 10:45:22 PM 47.6358 -122.1733 359° North 247 284 5,000 -893 Descending Seattle Center
Sat 10:46:22 PM 47.6469 -122.2594 281° West 223 257 4,000 -793 Descending Seattle Center
Sat 10:47:23 PM 47.6108 -122.3111 224° Southwest 225 259 3,400 -667 Descending Seattle Center
Sat 10:47:43 PM 47.5933 -122.3117 181° South 211 243 3,100 -1,000 Descending Seattle Center
Sat 10:48:23 PM 47.5575 -122.3103 179° South 195 224 2,400 -982 Descending Seattle Center
Sat 10:48:38 PM 47.5486 -122.3103 180° South 168 193 2,200 -689 Descending Seattle Center
Sat 10:49:24 PM 47.5214 -122.3108 181° South 148 170 1,700 -716 Descending Seattle Center
Sat 10:49:45 PM 47.5064 -122.3106 179° South 127 146 1,400 -787 Descending Seattle Center
Sat 10:50:25 PM 47.4842 -122.3111 181° South 136 157 900 -800 Descending Seattle Center
Sat 10:50:45 PM 47.4689 -122.3114 181° South 132 152 600 -500 Descending Seattle Center
Sat 10:51:25 PM 47.4419 -122.3117 180° South 135 155 400 -300 Descending Seattle Center
Sat 10:53:00 PM 47.4333 -122.3000 254° West  Level FlightAware Approximate

Login

Don't have an account? Register now (free) for customized features, flight alerts, and more!